Погода в Тазе

Марокко     34°13′40″N   4°00′36″W
темп.,
°C
ветер,
м/с
пор.,
м/с
влажн.,
%
обл.,
%
осадки,
мм/ч
давл.,
гПа
погр.,
м
19 апреля, пн
пн1900:00+13вюв33645 0.0 102038
03:00+12в22655 0.0 101917
06:00+11в22675 0.0 101913
09:00+16всв22496 0.0 1019453
12:00+21зсз244014 0.0 10171245
15:00+22з7834100 0.0 10151467
18:00+19зсз68462 0.0 1015486
21:00+16з33545 0.0 101834
20 апреля, вт
вт2000:00+13з3366100 0.0 101844
03:00+12з3367100 0.0 101729
06:00+11з33725 0.0 101731
09:00+16зсз34485 0.0 1016536
12:00+20зсз67355 0.0 10141021
15:00+21з78364 0.0 10121298
18:00+18з6848100 0.0 1013563
21:00+15з33615 0.0 101531
21 апреля, ср
ср2100:00+13з3368100 0.0 101542
03:00+11з33847 0.0 101442
06:00+11з338414 0.0 101437
09:00+15зсз346498 0.0 1014516
12:00+20зсз6644100 0.0 1013976
15:00+21з773412 0.0 10111110
18:00+18з5747100 0.0 1012462
21:00+16з3456100 0.0 101367
22 апреля, чт
чт2200:00+14з4665100 0.0 1013124
03:00+13з3679100 0.0 1013249
06:00+12з3478100 0.0 1014190
09:00+15зсз3564100 0.0 1014461
12:00+19з7847100 0.0 1013908
15:00+20з8942100 0.0 10111200
18:00+18з5757100 0.0 1012655
21:00+16зюз2265100 0.0 101430
23 апреля, пт
пт2300:00+14юв227314 0.0 101411
03:00+13вюв227643 0.0 101316
06:00+13в33765 0.0 101330
09:00+17в67555 0.0 1013787
12:00+21вюв66440 0.0 10121149
15:00+23в553772 0.0 10091250
18:00+22вюв3439100 0.0 1009129
21:00+17вюв5773100 0.8 1013352